NODES 2
1 41478U 98067HY 17184.53231089 .00055925 00000-0 24751-3 0 9994
2 41478 051.6304 278.7071 0001710 324.1556 035.9332 15.83863078064657
LO-87
1 41557U 16033B 17184.26449621 .00001241 00000-0 49449-4 0 9992
2 41557 097.4629 263.7817 0013013 315.7514 044.2683 15.27087789060882
NuSat2
1 41558U 16033C 17184.29884502 .00001273 00000-0 50874-4 0 9996
2 41558 097.4655 263.8722 0012463 314.4266 045.5952 15.26957284060884
Lapan A3
1 41603U 16040E 17184.58197196 .00000101 00000-0 80261-5 0 9996
2 41603 097.4597 246.3700 0014331 023.3138 107.5202 15.19358930057149
Swayam
1 41607U 16040J 17184.11867212 .00001507 00000-0 71316-4 0 9993
2 41607 097.4595 246.2403 0015020 027.3541 332.8482 15.20829595057020
Pratham
1 41783U 16059A 17184.23516269 .00000035 00000-0 16309-4 0 9990
2 41783 098.1659 245.4427 0034969 109.9539 250.5435 14.62841771040940
AlSat 1N
1 41789U 16059G 17184.41546190 .00000063 00000-0 21124-4 0 9994
2 41789 098.1659 246.1527 0029620 103.2097 257.2412 14.64053938040984
ScatSat
1 41790U 16059H 17184.61673356 -.00000019 00000-0 59081-5 0 9999
2 41790 098.0637 233.9701 0012570 096.0915 264.1713 14.50112178040644
TY-1
1 41844U 16066D 17184.58909207 .00000742 00000-0 35411-4 0 9992
2 41844 097.4047 191.4954 0015875 174.9988 309.2050 15.22069707035836
CAS-2T
1 41845U 16066E 17184.54115144 .00000064 00000-0 20496-4 0 9992
2 41845 098.7757 200.5666 0366379 199.5466 159.1367 14.37760352033844
Pegasus-1
1 41846U 16066F 17184.60355830 .00000230 00000-0 45770-4 0 9995
2 41846 098.7800 200.4010 0370006 200.5765 158.0182 14.37027879033835
STARS-C
1 41895U 98067KR 17184.59078208 .00021058 00000-0 23886-3 0 9993
2 41895 051.6383 310.9062 0004612 010.7917 349.3175 15.62314786030552
Tancredo 1
1 41931U 98067KT 17184.60542890 .00039252 00000-0 33690-3 0 9998
2 41931 051.6366 307.2258 0006925 329.4277 030.6315 15.68944981026179
TO-89
1 41932U 98067KU 17184.61330044 .00010917 00000-0 14069-3 0 9992
2 41932 051.6410 312.5760 0005440 332.2219 027.8483 15.59579215026107
AOBA-V3LOX3
1 41935U 98067KX 17184.60024099 .00012013 00000-0 15216-3 0 9998
2 41935 051.6408 312.4849 0004973 335.7869 024.2890 15.59928249026202
OSNSAT
1 41939U 98067KZ 17184.61938377 .00024878 00000-0 25968-3 0 9993
2 41939 051.6384 309.5903 0006655 332.7292 027.3353 15.64324227025505
EO-88
1 42017U 17008BX 17184.59722442 .00001473 00000-0 65629-4 0 9993
2 42017 097.4942 246.0219 0007372 151.4142 208.7500 15.23020562020989
SOMP2
1 42700U 98067LH 17184.58027398 .00011884 00000-0 17369-3 0 9997
2 42700 051.6404 316.0878 0006753 024.7363 335.3951 15.56072909007497
HAVELSAT
1 42701U 98067LJ 17184.58190421 .00011131 00000-0 16383-3 0 9996
2 42701 051.6406 316.0995 0006693 026.0060 334.1267 15.55957549007489
Columbia
1 42702U 98067LK 17184.56702602 .00020787 00000-0 28840-3 0 9993
2 42702 051.6399 316.0000 0007007 014.4990 345.6201 15.56983528007416
PHOENIX
1 42706U 98067LP 17184.38874200 .00013044 00000-0 19036-3 0 9996
2 42706 051.6406 317.0610 0001811 005.3109 354.7902 15.56027581007377
X-CubeSat
1 42707U 98067LQ 17184.58199148 .00011180 00000-0 16431-3 0 9995
2 42707 051.6404 316.1005 0001962 004.0135 356.0871 15.56004794007399
qbee
1 42708U 98067LR 17184.58296602 .00010662 00000-0 15727-3 0 9990
2 42708 051.6404 316.1068 0001954 003.8457 356.2550 15.55962792007356
ZA-AeroSat
1 42713U 98067LU 17184.58953655 .00009293 00000-0 13937-3 0 9993
2 42713 051.6406 316.1504 0002465 324.5710 035.5117 15.55687807007067
LINK
1 42714U 98067LV 17184.58913542 .00011137 00000-0 16509-3 0 9993
2 42714 051.6401 316.1471 0002848 327.6298 032.4518 15.55773548007177
UPSat
1 42716U 98067LX 17184.51924020 .00012388 00000-0 18102-3 0 9991
2 42716 051.6404 316.4307 0004993 026.4230 333.7015 15.56042197007186
SpaceCube
1 42717U 98067LY 17184.58675804 .00010358 00000-0 15360-3 0 9990
2 42717 051.6404 316.1320 0005028 027.4571 332.6685 15.55850030006438
Hoopoe
1 42718U 98067LZ 17184.58550945 .00011592 00000-0 17051-3 0 9999
2 42718 051.6405 316.1239 0005039 025.7874 334.3368 15.55934543006437
Challenger
1 42721U 98067MA 17184.59398603 .00014105 00000-0 20612-3 0 9995
2 42721 051.6401 316.1784 0008312 006.0870 354.0221 15.55885915006139
NJUST-1
1 42722U 98067MB 17184.53585720 .00009126 00000-0 13825-3 0 9993
2 42722 051.6406 316.5401 0007998 009.1348 350.9787 15.55419519006122
UNSW-EC0
1 42723U 98067MC 17184.59800508 .00011311 00000-0 16843-3 0 9996
2 42723 051.6404 316.2057 0008012 007.4993 352.6116 15.55610435006114
DUTHsat
1 42724U 98067MD 17184.59676062 .00013779 00000-0 20249-3 0 9998
2 42724 051.6403 316.1974 0007235 008.8996 351.2122 15.55763104006052
LO-90
1 42725U 98067ME 17184.60180232 .00009537 00000-0 14449-3 0 9992
2 42725 051.6407 316.2311 0007022 011.8205 348.2950 15.55360455006051
nSIGHT1
1 42726U 98067MF 17184.60487779 .00005319 00000-0 84539-4 0 9991
2 42726 051.6409 316.2518 0006885 014.8502 345.2690 15.55104987006045
QBITO
1 42728U 98067MH 17184.53434638 .00010428 00000-0 15618-3 0 9999
2 42728 051.6406 316.5314 0004168 018.2053 341.9087 15.55570658005833
Aalto-2
1 42729U 98067MJ 17184.59845986 .00010309 00000-0 15446-3 0 9995
2 42729 051.6404 316.2096 0004151 018.5350 341.5792 15.55574893005857
SUSat
1 42730U 98067MK 17184.59929486 .00010396 00000-0 15585-3 0 9995
2 42730 051.6403 316.2147 0004244 016.9367 343.1765 15.55548030005850
i-INSPIRE II
1 42731U 98067ML 17184.59743111 .00010444 00000-0 15581-3 0 9995
2 42731 051.6397 316.1995 0007865 320.4832 039.5585 15.55659648005893
PolyITAN-2-SAU
1 42732U 98067MM 17184.59770580 .00009996 00000-0 14973-3 0 9990
2 42732 051.6397 316.2014 0007784 320.3340 039.7081 15.55606587005897
SNUSAT-1
1 42733U 98067MN 17184.59947679 .00009755 00000-0 14682-3 0 9996
2 42733 051.6398 316.2132 0007599 321.7199 038.3252 15.55508951005892
ExAlta-1
1 42734U 98067MP 17184.53328676 .00010899 00000-0 16227-3 0 9999
2 42734 051.6399 316.5219 0009590 343.5673 016.5006 15.55647960005838
Aoxiang-1
1 42735U 98067MQ 17184.59972520 .00008730 00000-0 13234-3 0 9995
2 42735 051.6404 316.2165 0008662 005.8635 354.2456 15.55461685007266
BeEagleSat
1 42736U 98067MR 17184.60013775 .00009909 00000-0 14918-3 0 9995
2 42736 051.6405 316.2194 0008575 004.9930 355.1145 15.55472618005958
Atlantis
1 42737U 98067MS 17184.39831508 .00021902 00000-0 31190-3 0 9992
2 42737 051.6398 317.1215 0008927 358.3204 001.7757 15.56225291005817
CAS-4B
1 42759U 17034B 17184.53787647 -.00000106 00000-0 70082-5 0 9990
2 42759 043.0170 196.7616 0006388 088.2300 053.2500 15.08904639002772
CAS-4A
1 42761U 17034D 17184.53694955 -.00000083 00000-0 84357-5 0 9996
2 42761 043.0163 196.7556 0006970 089.1130 052.1775 15.08978146002763
Object A
1 42765U 17036A 17184.58151101 .00013689 00000-0 10366-3 0 9990
2 42765 094.6146 242.0391 0025061 274.5271 085.3136 15.71964419002251
Object B
1 42766U 17036B 17184.61060381 .00000965 00000-0 48661-4 0 9997
2 42766 097.4493 244.2354 0015886 196.4725 163.5996 15.19426810001589
